Find Rasat

NORAD ID: 37791 Int'l Des: 2011-044 Owner: TUBTU Country: TR operational
LEOCIRCULARRETROGRADESSO

实时位置

正在加载3D地球...

关于 Rasat

正在加载描述...

即将过境

Passes for default location (London). Set your location on the main map for personalized predictions.

高度历史

Loading altitude history...

两行轨道根数

1 37791U 11044D 26104.87640728 .00000273 00000-0 55945-4 0 9996
2 37791 98.0546 197.2505 0021436 36.2959 101.7494 14.68107319783891
Epoch: Apr 14, 2026 • Age: 4 hours

当前状态

高度 656.4 km
速度 7.54 km/s
星下点 33.12°N, 33.05°W
发射日期 Aug 17, 2011
运行时间 14.6 years
类型 other

技术详情

分类 Payload
质量 95.00 kg
干质量 95.00 kg
总质量 95.00 kg
长度 0.60 m
直径 0.60 m
跨度 6.60 m
形状 Box + Ant
制造商 TUBTU
平台类型 MS-100
阶段状态 In Orbit
所有者/国家 TUBTU/TR

Most Searched